Location: Ammerl�gen
(47.2167°N, 9.6000°E)
Time: 04:03:54
(UTC+00:00)

Cosmos 540 Rocket - Pass Details

Date: 21 April 2021
Orbit: 741 x 753 km, 74.1° (Epoch: 16 May)

Event Time Altitude Azimuth Distance (km) Brightness Sun altitude
Rises 21:47:04 0° 335° (NNW) 3,195 8.0 -27.1°
Reaches altitude 10° 21:49:27 10° 333° (NNW) 2,266 6.9 -27.2°
Enters shadow 21:54:13 66° 277° (W) 814 3.6 -27.6°
